Location: Harwich
(41.7160°N, 69.9939°W)
Time: 09:12:20
(UTC+02:00)

A-11 Canister half - Pass Details

Date: 24 February 2024
Orbit: 1513 x 1686 km, 47.2° (Epoch: 24 April)

Event Time Altitude Azimuth Distance (km) Brightness Sun altitude
Exits shadow 07:58:21 44° 73° (ENE) 2,174 9.8 -47.8°
Drops below altitude 10° 08:04:30 10° 65° (ENE) 3,882 11.6 -46.9°
Sets 08:07:36 0° 64° (ENE) 4,849 12.3 -46.4°
